SCP
0 0 0 0 0 0 0 0 0 0 0 0 0 0 0 0 0 0 0 0 0 0 0 0 0 0 0 0 0 0 0 0 0 0 0 0 0 0 0 0 0 0 0 0
0 0 0 0 0 0 0 0 0 0 0 0 0 0 0 0 0 0 0 0 0 0 0 0 0 0 0 0 0 0 0 0 0 0 0 0 0 0 0 0 0 0 0 0
0 0 0 0 0 0 0 0 0 0 0 0 0 0 0 0 0 0 0 0 0 0 0 0 0 0 0 0 0 0 0 0 0 0 0 0 0 0 0 0 0 0 0 0
0 0 0 0 0 0 0 0 0 0 0 0 0 0 0 0 0 0 0 0 0 0 0 0 0 0 0 0 0 0 0 0 0 0 0 0 0 0 0 0 0 0 0 0
0 0 0 0 0 0 0 0 0 0 0 0 0 0 0 0 0 0 0 0 0 0 0 0 0 0 0 0 0 0 0 0 0 0 0 0 0 0 0 0 0 0 0 0
0 0 0 0 0 0 0 0 0 0 0 0 0 0 0 0 0 0 0 0 0 0 0 0 0 0 0 0 0 0 0 0 0 0 0 0 0 0 0 0 0 0 0 0
0 0 0 0 0 0 0 0 0 0 0 0 0 0 0 0 0 0 0 0 0 0 0 0 0 0 0 0 0 0 0 0 0 0 0 0 0 0 0 0 0 0 0 0
0 0 0 0 0 0 0 0 0 0 0 0 0 0 0 0 0 0 0 0 0 0 0 0 0 0 0 0 0 0 0 0 0 0 0 0 0 0 0 0 0 0 0 0
0 0 0 0 0 0 0 0 0 0 0 0 0 0 0 0 0 0 0 0 0 0 0 0 0 0 0 0 0 0 0 0 0 0 0 0 0 0 0 0 0 0 0 0
0 0 0 0 0 0 0 0 0 0 0 0 0 0 0 0 0 0 0 0 0 0 0 0 0 0 0 0 0 0 0 0 0 0 0 0 0 0 0 0 0 0 0 0
0 0 0 0 0 0 0 0 0 0 0 0 0 0 0 0 0 0 0 0 0 0 0 0 0 0 0 0 0 0 0 0 0 0 0 0 0 0 0 0 0 0 0 0
0 0 0 0 0 0 0 0 0 0 0 0 0 0 0 0 0 0 0 0 0 0 0 0 0 0 0 0 0 0 0 0 0 0 0 0 0 0 0 0 0 0 0 0
0 0 0 0 0 0 0 0 0 0 0 0 0 0 0 0 0 0 0 0 0 0 0 0 0 0 0 0 0 0 0 0 0 0 0 0 0 0 0 0 0 0 0 0
0 0 0 0 0 0 0 0 0 0 0 0 0 0 0 0 0 0 0 0 0 0 0 0 0 0 0 0 0 0 0 0 0 0 0 0 0 0 0 0 0 0 0 0
0 0 0 0 0 0 0 0 0 0 0 0 0 0 0 0 0 0 0 0 0 0 0 0 0 0 0 0 0 0 0 0 0 0 0 0 0 0 0 0 0 0 0 0
0 0 0 0 0 0 0 0 0 0 0 0 0 0 0 0 0 0 0 0 0 0 0 0 0 0 0 0 0 0 0 0 0 0 0 0 0 0 0 0 0 0 0 0
0 0 0 0 0 0 0 0 0 0 0 0 0 0 0 0 0 0 0 0 0 0 0 0 0 0 0 0 0 0 0 0 0 0 0 0 0 0 0 0 0 0 0 0
0 0 0 0 0 0 0 0 0 0 0 0 0 0 0 0 0 0 0 0 0 0 0 0 0 0 0 0 0 0 0 0 0 0 0 0 0 0 0 0 0 0 0 0
0 0 0 0 0 0 0 0 0 0 0 0 0 0 0 0 0 0 0 0 0 0 0 0 0 0 0 0 0 0 0 0 0 0 0 0 0 0 0 0 0 0 0 0
0 0 0 0 0 0 0 0 0 0 0 0 0 0 0 0 0 0 0 0 0 0 0 0 0 0 0 0 0 0 0 0 0 0 0 0 0 0 0 0 0 0 0 0
0 0 0 0 0 0 0 0 0 0 0 0 0 0 0 0 0 0 0 0 0 0 0 0 0 0 0 0 0 0 0 0 0 0 0 0 0 0 0 0 0 0 0 0
0 0 0 0 0 0 0 0 0 0 0 0 0 0 0 0 0 0 0 0 0 0 0 0 0 0 0 0 0 0 0 0 0 0 0 0 0 0 0 0 0 0 0 0
0 0 0 0 0 0 0 0 0 0 0 0 0 0 0 0 0 0 0 0 0 0 0 0 0 0 0 0 0 0 0 0 0 0 0 0 0 0 0 0 0 0 0 0
0 0 0 0 0 0 0 0 0 0 0 0 0 0 0 0 0 0 0 0 0 0 0 0 0 0 0 0 0 0 0 0 0 0 0 0 0 0 0 0 0 0 0 0
0 -0 -0 0 0 0 0 0 0 0 0 0 0 0 0 0 0 0 0 0 0 0 0 0 0 0 0 0 0 0 0 0 0 0 0 0 0 0 0 0 0 0 0 0
0 -0 -0 -0 0 0 0 0 0 0 0 0 0 0 0 0 0 0 0 0 0 0 0 0 0 0 0 0 0 0 0 0 0 0 0 0 0 0 0 0 0 0 0 0
Wind_Speed
5 5 8 9 11 10 8 9 10 8 5 6 9 10 9 7 7 6 5 5 4 4 3 4 4 4 4 4 4 5 6 5 4 4 4 3 3 2 2 2 3 3 3 3
4 9 9 8 8 9 11 12 10 7 4 4 8 11 9 9 8 6 5 4 4 3 2 3 4 4 4 5 5 5 5 6 5 4 4 3 3 3 2 2 3 4 3 3
9 5 5 7 8 10 11 10 8 7 6 5 6 8 8 6 6 4 4 3 3 3 2 3 3 3 4 4 5 5 5 5 6 5 4 3 3 2 2 3 3 3 4 3
8 5 5 6 7 7 9 7 8 7 5 4 4 5 4 4 5 4 3 2 2 2 2 2 2 3 3 4 3 4 5 5 5 6 5 6 5 4 4 4 3 3 4 3
5 4 5 7 7 7 5 5 7 8 7 6 6 5 5 3 3 4 4 3 3 2 2 2 2 3 3 3 4 3 4 4 5 5 6 6 5 4 3 4 4 3 3 3
8 5 4 5 5 5 4 4 6 6 4 8 9 7 4 2 3 2 3 3 3 2 2 2 2 2 2 2 3 4 4 4 4 5 5 6 6 5 6 5 5 4 3 3
5 4 2 1 3 3 3 2 2 3 5 7 6 6 3 1 1 2 3 3 3 3 3 3 2 1 2 2 2 3 5 4 4 5 5 5 6 6 7 6 6 5 4 3
4 4 1 1 3 3 5 5 4 4 4 3 4 5 2 2 4 6 5 5 5 4 3 3 2 1 1 1 2 3 4 4 4 4 5 5 5 4 4 5 5 5 4 4
4 5 3 4 4 3 4 6 4 3 3 3 4 3 1 4 6 6 5 5 4 4 3 3 3 2 1 1 1 3 4 3 4 4 4 5 5 5 4 5 5 4 4 4
4 6 5 3 3 3 4 3 1 3 3 4 3 2 1 2 3 3 4 4 4 4 3 3 3 3 2 0 0 1 2 3 3 3 3 4 4 4 4 4 5 5 5 5
5 4 5 3 2 3 2 2 2 3 3 2 2 1 4 3 2 3 3 4 4 4 3 3 3 3 2 2 1 1 1 1 2 3 2 3 4 4 4 4 5 5 5 5
4 3 5 5 2 3 1 1 0 1 2 2 1 1 5 6 5 4 5 5 5 4 4 4 3 4 3 3 2 1 1 0 1 2 2 3 4 4 4 4 4 5 5 5
4 3 4 2 1 4 3 3 2 2 2 2 2 1 6 7 6 6 5 5 5 5 5 4 4 4 3 2 2 2 1 1 0 2 2 2 3 4 4 4 4 4 5 5
5 3 2 3 4 3 4 4 4 2 1 2 2 3 6 7 7 7 6 5 5 4 4 4 4 4 3 3 3 2 1 1 0 1 2 2 3 4 4 4 4 4 4 4
3 3 4 5 5 3 3 4 3 2 2 2 4 4 5 7 7 7 7 6 6 6 6 5 5 5 4 3 3 3 2 1 1 1 1 2 2 3 3 3 4 4 4 4
4 4 5 5 3 1 4 5 4 4 4 4 5 5 6 6 6 6 6 7 7 7 6 6 5 5 5 4 4 3 2 2 1 1 1 1 2 2 3 3 4 3 3 3
3 3 3 3 2 2 3 4 3 3 3 3 4 6 8 8 8 6 6 6 7 7 7 7 6 5 5 4 4 3 2 2 2 2 1 1 2 2 2 3 3 4 3 3
3 3 3 3 2 1 0 3 3 3 4 6 6 7 7 7 5 4 6 6 7 7 7 6 5 5 5 5 4 3 3 2 2 2 2 2 1 2 2 3 3 3 3 3
2 2 2 2 1 2 2 5 6 3 3 7 8 9 9 7 4 4 8 8 7 6 6 5 5 5 4 5 4 4 4 4 4 3 2 2 1 2 2 2 2 2 3 2
2 1 1 2 1 2 4 8 8 4 2 8 9 9 9 8 5 5 8 8 7 7 6 5 5 5 5 5 4 4 4 4 4 4 3 2 2 2 2 2 2 2 2 2
3 2 1 2 1 1 5 8 6 3 4 9 9 7 7 5 4 6 7 6 6 6 6 6 5 5 5 5 5 5 5 5 4 3 3 3 3 2 2 2 2 2 2 2
3 2 2 2 1 2 7 6 5 4 5 7 8 7 6 6 6 7 7 6 7 7 7 6 5 5 5 5 5 5 5 5 4 3 3 3 3 2 2 2 2 2 2 2
3 2 1 1 0 3 4 4 4 5 6 6 7 7 7 7 7 7 7 7 7 7 7 6 5 5 5 6 5 5 5 5 4 3 3 3 3 3 2 2 2 2 1 2
3 3 2 1 2 4 4 5 6 6 6 6 6 7 6 6 6 7 6 6 7 7 6 6 6 6 6 6 6 5 5 5 4 3 3 3 3 3 3 2 1 1 1 1
4 4 3 2 4 5 5 7 7 7 7 7 7 6 6 6 6 6 6 6 5 6 6 5 5 5 6 6 6 6 5 5 4 4 3 3 3 2 2 2 2 1 1 1
3 3 3 3 5 5 7 7 8 8 8 7 7 6 6 5 6 6 5 5 5 5 6 6 5 5 5 5 6 6 6 5 4 4 3 2 2 2 1 2 2 3 2 3
Wind_Direction
206 220 224 225 226 243 257 260 260 259 244 234 239 250 251 248 242 235 224 210 202 198 186 165 156 154 156 160 163 166 164 164 159 160 160 158 160 158 152 150 147 143 152 157
234 234 239 249 251 252 256 260 266 277 265 258 260 260 253 241 233 223 214 204 186 178 179 161 156 162 167 173 175 172 171 168 167 168 166 160 154 159 158 159 152 153 155 163
237 249 245 251 256 254 253 253 259 271 286 259 269 271 243 236 234 225 208 193 174 173 182 175 171 169 166 175 182 182 176 170 169 163 154 149 141 141 153 161 164 166 161 166
257 259 260 252 255 257 258 260 268 266 263 253 221 273 251 225 221 217 201 183 170 170 175 177 172 171 174 183 180 179 175 171 173 169 168 171 172 171 171 165 166 168 160 162
270 269 263 259 256 256 265 300 276 253 248 256 235 244 265 203 222 212 191 181 176 173 175 172 166 171 173 174 170 172 169 173 177 178 175 175 181 173 154 157 161 165 164 168
272 273 266 267 277 256 264 284 281 256 232 240 221 215 261 216 220 206 171 155 145 119 94 104 105 124 149 153 159 163 165 174 178 179 178 181 183 173 164 165 167 171 171 171
285 251 238 304 289 245 226 211 238 220 214 231 207 201 232 214 143 111 113 105 96 89 75 68 81 97 120 150 161 165 167 174 179 180 181 184 186 179 176 173 171 172 175 173
296 280 220 307 275 257 228 216 214 222 230 247 204 205 203 83 68 59 64 71 67 67 65 59 65 78 119 136 166 167 170 173 176 180 184 182 184 181 180 173 168 174 179 179
305 291 323 319 295 268 238 229 255 276 283 271 223 181 161 58 53 42 42 50 46 51 52 43 32 29 76 120 182 170 170 173 177 186 186 180 182 180 175 168 163 168 169 173
306 292 289 299 292 250 263 272 250 220 232 243 246 213 251 23 28 34 26 19 18 38 34 31 25 12 9 52 139 132 146 172 176 186 191 178 174 176 172 168 167 165 166 168
311 283 293 303 266 288 281 269 258 245 253 248 262 317 21 37 58 47 19 16 15 20 18 19 14 3 5 34 65 107 120 158 173 178 181 170 167 167 167 172 168 163 162 165
322 299 282 277 320 348 344 302 287 227 273 277 283 300 14 26 38 39 20 15 9 9 12 17 14 8 15 27 25 54 61 124 177 165 172 173 166 168 168 168 166 162 164 168
326 300 303 297 28 15 5 348 319 288 290 267 242 265 9 20 27 23 11 3 2 13 12 11 12 10 12 19 12 7 356 358 165 149 161 171 168 171 173 169 162 163 163 165
329 280 262 283 321 336 340 352 356 2 277 295 290 315 348 359 2 2 3 2 3 10 8 7 6 4 6 13 12 1 355 356 14 135 159 178 178 175 176 166 160 163 162 165
337 292 288 296 312 342 360 359 7 355 310 293 316 331 344 346 348 355 2 6 7 9 8 4 358 358 357 6 9 10 18 5 8 104 142 193 175 161 157 154 151 154 159 162
335 305 299 285 281 36 25 14 355 338 333 324 329 329 337 341 356 2 8 5 4 1 357 354 355 357 356 360 359 359 6 10 36 70 79 151 142 135 146 151 151 151 154 153
302 306 304 284 298 350 4 351 345 341 338 331 315 318 342 357 358 360 7 10 5 358 355 354 354 352 349 352 352 351 352 15 46 62 44 77 131 131 134 145 149 154 156 153
277 297 288 288 321 279 53 21 4 360 7 7 354 349 347 342 344 3 14 9 360 356 353 354 354 349 349 351 355 3 17 47 58 58 47 48 93 118 120 125 141 146 144 142
274 269 296 304 300 278 7 4 347 328 348 6 348 343 342 341 349 11 14 6 358 356 352 348 350 353 359 1 359 13 23 40 49 43 34 41 82 109 115 119 123 123 126 128
355 349 303 303 311 320 348 336 325 314 346 358 348 343 341 346 346 337 352 356 357 0 358 357 3 10 10 3 5 22 24 30 30 20 14 17 47 82 103 116 114 105 114 124
358 348 343 302 274 353 351 332 347 20 324 338 340 340 343 343 326 325 341 352 356 360 2 4 9 12 4 5 15 20 20 12 6 14 22 31 39 55 82 95 103 112 115 121
357 347 341 330 330 311 351 4 23 334 324 338 345 347 345 338 339 347 349 353 358 0 2 3 7 9 5 11 19 18 10 1 7 20 36 37 32 33 62 83 88 105 128 129
34 9 328 353 283 328 348 354 344 341 338 341 343 343 348 350 349 350 354 357 358 358 358 358 1 5 6 10 17 17 359 357 3 23 37 35 31 32 49 78 87 93 110 114
359 345 327 318 334 337 350 358 355 352 344 341 341 341 347 346 345 349 352 354 355 355 356 357 2 6 3 4 10 11 1 359 9 25 30 31 37 39 43 50 61 77 93 115
330 339 327 304 319 331 350 354 349 346 346 344 343 344 347 346 343 347 346 348 351 351 352 356 1 3 2 5 7 6 3 10 18 18 22 21 22 31 44 44 48 56 42 84
345 331 316 294 318 314 314 332 343 340 338 336 336 342 349 347 340 342 340 344 350 351 353 355 358 2 2 7 6 5 6 9 13 12 13 13 14 16 30 45 41 46 52 52